Terminal Aerodrome Forecast
Issued by NWS

Home | Current Version | Previous Version | Graphics & Text | Print | Product List | Glossary On
Versions: 1 2 3 4 5 6 7 8 9 10 11 12 13 14 15 16 17 18 19 20 21 22 23
000
FTUS45 KGGW 292100 AAA
TAFSDY
TAF AMD
KSDY 292109Z 2921/3018 34010KT P6SM FEW210
     FM300600 VRB06KT P6SM BKN110
     FM301200 13012KT P6SM VCSH BKN110
      AMD LTD TO CLD VIS AND WIND=

USA.gov is the U.S. government's official web portal to all federal, state and local government web resources and services.